Вернуться в каталог

STARLINK-34620

АктивенСвязьVLEO
NORAD 64803·PAYLOAD·🇺🇸 United States

Запущен Jul 16, 2025 с Vandenberg Space Force Base

Loading…

Ближайшие Пролёты (ближайшие 24 часа)

TLE

СвежийSource: CelesTrak SupGP

Эпоха: Sep 14, 2026, 20:33 UTC

1 64803C 25150P   26257.85673611 -.00001768  00000+0 -14812-3 0  2572
2 64803  70.0028  17.6521 0003560 273.2301 249.4407 14.98332430    12

Отслеживайте STARLINK-34620 в реальном времени с AllMySat

Download on the App Store